Dalhart, TX

4:06 PM CDT on May 29, 2017 (GMT -0500)
Dalhart Municipal

Weather History for KDHT - June, 2013

Change the Weather History Date:

Sunday, June 2, 2013

  Actual Average Record
Temperature  
Mean Temperature 68 °F 69 °F  
Max Temperature 88 °F 84 °F 105 °F (2008)
Min Temperature 47 °F 54 °F 41 °F (1951)
Degree Days  
Heating Degree Days 0 1  
Month to date heating degree days 0 2  
Since 1 June heating degree days 0 2  
Since 1 July heating degree days 4400 4719  
Cooling Degree Days 3 5  
Month to date cooling degree days 5 10  
Year to date cooling degree days 159 82  
Since 1 June cooling degree days 5 10  
Growing Degree Days 16 (Base 50)    
Moisture  
Dew Point 41 °F    
Average Humidity 45    
Maximum Humidity 71    
Minimum Humidity 18    
Precipitation  
Precipitation 0.00 in 0.08 in 1.42 in (1963)
Month to date precipitation 0.00 0.15  
Year to date precipitation 1.30 5.56  
Snow  
Snow 0.00 in 0.00 in 0.00 in ()
Month to date snowfall 0.0 0.0  
Since 1 June snowfall 0.0 0.0  
Since 1 July snowfall 21.6 18.9  
Snow Depth 0.00 in    
Sea Level Pressure  
Sea Level Pressure 30.00 in    
Wind  
Wind Speed 14 mph (South)    
Max Wind Speed 28 mph    
Max Gust Speed 37 mph    
Visibility 10 miles    
Events      
T = Trace of Precipitation, MM = Missing Value Source: NWS Daily Summary

Daily Weather History Graph

Daily Weather History Graph

Search for Another Location

Airport or City:

Trip Planner

Search our weather history database for the weather conditions in past years. The results will help you decide how hot, cold, wet, or windy it might be!

Date:

Astronomy

Jun. 02, 2013 Rise Set
Actual Time 6:34 AM CDT 9:02 PM CDT
Civil Twilight 6:04 AM CDT 9:32 PM CDT
Nautical Twilight 5:27 AM CDT 10:09 PM CDT
Astronomical Twilight 4:47 AM CDT 10:49 PM CDT
Moon 2:52 AM CDT (6/2) 3:44 PM CDT (6/2)
Length of Visible Light 15h 27m
Length of Day
14h 28m
Waning Crescent, 30% of the Moon is Illuminated
Jun 2
Waning Crescent
Jun 8
New
Jun 16
First Quarter
Jun 23
Full
Jun 29
Last Quarter

Hourly Weather History & Observations

Time (CDT) Temp. Dew Point Humidity Pressure Visibility Wind Dir Wind Speed Gust Speed Precip Events Conditions
12:53 AM 57.9 °F 39.9 °F 51% 30.09 in 10.0 mi ENE 8.1 mph - N/A   Clear
1:53 AM 57.0 °F 39.9 °F 53% 30.09 in 10.0 mi ENE 8.1 mph - N/A   Clear
2:53 AM 55.0 °F 41.0 °F 59% 30.08 in 10.0 mi ENE 6.9 mph - N/A   Clear
3:53 AM 55.0 °F 39.9 °F 57% 30.08 in 10.0 mi Calm Calm - N/A   Clear
4:53 AM 53.1 °F 39.0 °F 59% 30.09 in 10.0 mi Calm Calm - N/A   Clear
5:53 AM 50.0 °F 39.0 °F 66% 30.09 in 10.0 mi NNW 3.5 mph - N/A   Clear
6:53 AM 46.9 °F 37.9 °F 71% 30.12 in 7.0 mi West 5.8 mph - N/A   Clear
7:12 AM 48.2 °F 39.2 °F 71% 30.24 in 2.0 mi WNW 3.5 mph - N/A   Haze
7:22 AM 51.8 °F 39.2 °F 62% 30.24 in 8.0 mi NW 3.5 mph - N/A   Clear
7:53 AM 54.0 °F 41.0 °F 62% 30.11 in 10.0 mi Calm Calm - N/A   Clear
8:53 AM 60.1 °F 42.1 °F 51% 30.11 in 10.0 mi SSE 4.6 mph - N/A   Clear
9:53 AM 64.9 °F 43.0 °F 45% 30.10 in 10.0 mi SSE 9.2 mph - N/A   Clear
10:53 AM 70.0 °F 41.0 °F 35% 30.07 in 10.0 mi South 11.5 mph - N/A   Clear
11:53 AM 72.0 °F 39.9 °F 31% 30.06 in 10.0 mi South 11.5 mph 21.9 mph N/A   Clear
12:53 PM 77.0 °F 39.0 °F 25% 30.02 in 10.0 mi South 19.6 mph 27.6 mph N/A   Clear
1:53 PM 79.0 °F 37.9 °F 23% 29.99 in 10.0 mi South 16.1 mph 33.4 mph N/A   Clear
2:53 PM 82.9 °F 37.9 °F 20% 29.94 in 10.0 mi SSW 21.9 mph 29.9 mph N/A   Clear
3:53 PM 84.0 °F 39.0 °F 20% 29.90 in 10.0 mi South 21.9 mph 29.9 mph N/A   Clear
4:53 PM 87.1 °F 39.9 °F 19% 29.86 in 10.0 mi SSW 26.5 mph 34.5 mph N/A   Clear
5:53 PM 84.9 °F 41.0 °F 21% 29.83 in 10.0 mi SSW 25.3 mph 33.4 mph N/A   Clear
6:53 PM 84.9 °F 41.0 °F 21% 29.81 in 10.0 mi South 20.7 mph 27.6 mph N/A   Clear
7:53 PM 82.9 °F 41.0 °F 23% 29.80 in 10.0 mi SSE 24.2 mph - N/A   Clear
8:53 PM 80.1 °F 43.0 °F 27% 29.80 in 10.0 mi South 19.6 mph - N/A   Clear
9:53 PM 79.0 °F 44.1 °F 29% 29.79 in 10.0 mi South 21.9 mph - N/A   Clear
10:53 PM 77.0 °F 45.0 °F 32% 29.81 in 10.0 mi South 23.0 mph - N/A   Clear
11:53 PM 75.9 °F 46.0 °F 35% 29.80 in 10.0 mi South 20.7 mph 29.9 mph N/A   Partly Cloudy